STARLINK-5020, 55458

Orbit data source: Space-Track

STARLINK-5020, 55458 is a payload satellite owned by SpaceX/Seattle (US) in LEO that was launched on Thu, 02 Feb 2023 UTC via an FALCON 9 launch vehicle from the Air Force Eastern Test Range (AFETR). Payload-class satellites include a variety of spacecraft equipped with specific instruments for various scientific and technological missions. These include communications satellites like Starlink; space stations such as the ISS; scientific satellites like the Hubble; Earth observation satellites from companies like Planet Labs, Umbra, and HawkEye 360; GPS; miniature CubeSats for education and research; and military/defense satellites.

Loading next visibility...
Identifier
55458, 2023-015K
Orbit
LEO
Country
Flag of USUS
Related business
Manufacturer
SpaceX/Seattle
Mission
Operational Commercial Communications
Bus & Motor
STARLINK, Unknown motor
Mass
305 kg wet, ~290 kg dry
Launch date (UTC)
2023-02-02 (3 years ago)
Launch vehicle
FALCON 9
Launch site
Air Force Eastern Test Range (AFETR)
Object type
Payload
Rocket body
Debris
Shape & HBR
Box + 1 Pan, 10.1 m
Radar Cross Section
13.562 m², Large (>1 m²)

Expand to show TLE details & history
Last TLE update: 12 hours ago

TLE from 12 hours ago
0 STARLINK-5020
1 55458U 23015K   25288.63852067  .00001661  00000-0  13796-3 0  9993
2 55458  43.0082  34.2336 0000950 274.6734  85.4000 15.02538693148938
Epoch: 2025-10-15T15:19Z
TLE epoch observation values (Epoch: 2025-10-15T15:19:28.185Z)
Latitude
-0.00003°
Longitude
139.95641°
Altitude
558.797 km
Speed
7.584 km/s
True Right ascension
02h 16m 56s
True Declination
0° 00' 00"
Sunlit
Object was in full shadow at epoch
Visualization orbit readout
Latitude
Unknown
Longitude
Unknown
Altitude
Unknown
Speed
Unknown
Apparent Right ascension
Unknown
Apparent Declination
Unknown
Sunlit
N/A
Visualization observer readout
Local Sidereal Time
22:02:37
Azimuth
Unknown
Elevation
Unknown
Doppler factor
Unknown
Orbital elements
Apogee altitude
561.653 km
Perigee altitude
560.335 km
Semi-major axis
6,939.131 km
Eccentricity
0.0001
Inclination
43.0082°
RAAN
34.2336°
Arg. of periapsis
274.6734°
True anomaly
85.41085°
Mean anomaly
85.4°
Eccentric anomaly
85.40543°
Mean motion
3.75479 °/min
Orbital period
95.88 mins
BSTAR
0.00013796
Loading maneuver chart data...
Computing Atmospheric mass density...
Loading historical data...
Loading historical data...
Loading historical data...
Loading historical data...
Loading historical data...
Loading historical data...
Loading historical data...

Documentation

Showing up to 5 results
|